FW2585 Weather Reports


Display with metric or nautical units.
time (UTC)temp
F
wind
direction
speed
MPH
gust
MPH
rain 1hr
in
rain 24hr
in
rain mn
in
humidity
%
barometer
mb
20221210095502 76 89 6.0 11.0 0.00 0.00 0.00 33 1014.4
20221210094005 76 90 5.0 13.0 0.00 0.00 0.00 34 1014.5
20221210093504 76 91 5.0 12.0 0.00 0.00 0.00 34 1014.5
20221210093005 76 95 5.0 12.0 0.00 0.00 0.00 35 1014.4
20221210092004 76 90 6.0 14.0 0.00 0.00 0.00 40 1014.5
20221210091503 76 89 6.0 12.0 0.00 0.00 0.00 39 1014.6
20221210091005 76 90 6.0 13.0 0.00 0.00 0.00 40 1014.6
20221210090504 76 89 6.0 13.0 0.00 0.00 0.00 40 1014.5
20221210085504 77 94 6.0 11.0 0.00 0.00 0.00 40 1014.5
20221210085005 77 97 6.0 10.0 0.00 0.00 0.00 39 1014.5
20221210084503 76 92 6.0 11.0 0.00 0.00 0.00 38 1014.4
20221210083006 77 92 6.0 12.0 0.00 0.00 0.00 43 1014.1
20221210082503 77 95 6.0 12.0 0.00 0.00 0.00 45 1014.0
20221210082005 77 93 7.0 14.0 0.00 0.00 0.00 45 1013.9
20221210081503 77 89 7.0 14.0 0.00 0.00 0.00 45 1013.9
20221210081005 77 86 6.0 14.0 0.00 0.00 0.00 46 1013.9
20221210080503 77 87 6.0 13.0 0.00 0.00 0.00 51 1013.9
20221210075005 77 78 6.0 14.0 0.00 0.00 0.00 54 1013.7
20221210074503 77 87 7.0 14.0 0.00 0.00 0.00 54 1013.6
20221210074006 78 88 8.0 16.0 0.00 0.00 0.00 56 1013.6
20221210073005 78 90 8.0 14.0 0.00 0.00 0.00 58 1013.3
20221210072503 78 91 9.0 16.0 0.00 0.00 0.00 56 1013.3
20221210072006 78 89 9.0 18.0 0.00 0.00 0.00 55 1013.1
20221210071503 78 93 8.0 18.0 0.00 0.00 0.00 55 1013.1
20221210071006 78 96 7.0 15.0 0.00 0.00 0.00 57 1012.9
20221210070503 79 86 7.0 15.0 0.00 0.00 0.00 56 1012.9
20221210070005 79 86 7.0 16.0 0.00 0.00 0.00 58 1012.9
20221210065504 79 81 7.0 16.0 0.00 0.00 0.00 57 1012.9
20221210065006 79 76 7.0 14.0 0.00 0.00 0.00 58 1012.8
20221210064503 79 91 7.0 12.0 0.00 0.00 0.00 58 1012.8
20221210064005 79 96 7.0 14.0 0.00 0.00 0.00 58 1012.7
20221210063503 79 90 8.0 14.0 0.00 0.00 0.00 59 1012.7
20221210063005 79 80 9.0 20.0 0.00 0.00 0.00 58 1012.7
20221210062006 79 90 9.0 17.0 0.00 0.00 0.00 59 1012.8
20221210061504 79 94 8.0 17.0 0.00 0.00 0.00 58 1012.7
20221210061005 79 86 8.0 17.0 0.00 0.00 0.00 59 1012.8
20221210060503 79 85 8.0 17.0 0.00 0.00 0.00 58 1012.8
20221210060006 80 80 8.0 17.0 0.00 0.00 0.00 59 1012.8
20221210055503 80 75 8.0 14.0 0.00 0.00 0.00 58 1012.8
20221210055005 80 83 8.0 19.0 0.00 0.00 0.00 59 1012.8
20221210054503 80 83 7.0 19.0 0.00 0.00 0.00 59 1012.8
20221210054006 80 80 7.0 17.0 0.00 0.00 0.00 58 1012.8
20221210053504 80 90 7.0 15.0 0.00 0.00 0.00 58 1012.9
20221210053005 80 97 8.0 14.0 0.00 0.00 0.00 58 1012.9
20221210052503 80 91 8.0 15.0 0.00 0.00 0.00 58 1012.9
20221210051503 80 104 9.0 18.0 0.00 0.00 0.00 58 1012.9
20221210051005 80 94 9.0 20.0 0.00 0.00 0.00 59 1012.8
20221210050503 80 95 8.0 20.0 0.00 0.00 0.00 59 1012.8
20221210050005 80 89 9.0 16.0 0.00 0.00 0.00 58 1012.9
20221210045504 80 84 8.0 17.0 0.00 0.00 0.00 59 1013.0
20221210045005 80 92 7.0 17.0 0.00 0.00 0.00 58 1013.0
20221210044504 81 92 7.0 15.0 0.00 0.00 0.00 58 1013.0
20221210044006 81 89 7.0 14.0 0.00 0.00 0.00 58 1013.0
20221210043006 80 81 7.0 14.0 0.00 0.00 0.00 59 1013.0
20221210042504 81 73 7.0 14.0 0.00 0.00 0.00 58 1013.0
20221210042005 81 70 8.0 16.0 0.00 0.00 0.00 58 1013.0
20221210041503 81 78 7.0 16.0 0.00 0.00 0.00 58 1013.0
20221210041006 80 92 8.0 15.0 0.00 0.00 0.00 58 1013.1
20221210040006 80 103 8.0 15.0 0.00 0.00 0.00 58 1013.0
20221210035504 81 96 7.0 18.0 0.00 0.00 0.00 58 1013.0
20221210035005 81 85 8.0 18.0 0.00 0.00 0.00 57 1013.0
20221210034503 81 87 8.0 18.0 0.00 0.00 0.00 57 1013.1
20221210033504 81 91 7.0 16.0 0.00 0.00 0.00 58 1013.3
20221210033006 81 86 7.0 16.0 0.00 0.00 0.00 58 1013.4
20221210032503 81 77 7.0 14.0 0.00 0.00 0.00 58 1013.3
20221210032005 81 69 7.0 15.0 0.00 0.00 0.00 58 1013.4
20221210031503 81 71 7.0 15.0 0.00 0.00 0.00 58 1013.5
20221210031005 81 82 6.0 12.0 0.00 0.00 0.00 58 1013.6
20221210030503 81 88 6.0 12.0 0.00 0.00 0.00 59 1013.6
20221210030005 81 88 7.0 14.0 0.00 0.00 0.00 57 1013.6
20221210025503 80 88 6.0 17.0 0.00 0.00 0.00 58 1013.7
20221210025005 80 84 5.0 17.0 0.00 0.00 0.00 57 1013.7
20221210024503 80 91 6.0 12.0 0.00 0.00 0.00 57 1013.6
20221210024006 80 90 7.0 17.0 0.00 0.00 0.00 57 1013.7
20221210023504 80 85 6.0 17.0 0.00 0.00 0.00 58 1013.9
20221210023006 80 88 6.0 15.0 0.00 0.00 0.00 58 1013.8
20221210022503 81 88 7.0 15.0 0.00 0.00 0.00 57 1013.8
20221210022005 81 90 7.0 15.0 0.00 0.00 0.00 58 1013.8
20221210021005 80 80 6.0 13.0 0.00 0.00 0.00 58 1014.0
20221210020504 80 78 6.0 17.0 0.00 0.00 0.00 57 1013.9
20221210020006 80 84 6.0 17.0 0.00 0.00 0.00 58 1014.0
20221210015006 80 78 4.0 13.0 0.00 0.00 0.00 57 1014.1
20221210014503 80 89 6.0 13.0 0.00 0.00 0.00 57 1014.1
20221210014005 79 90 7.0 13.0 0.00 0.00 0.00 53 1014.0
20221210013503 79 98 7.0 14.0 0.00 0.00 0.00 53 1014.0
20221210013008 79 106 7.0 14.0 0.00 0.00 0.00 56 1014.1
20221210012503 79 103 6.0 14.0 0.00 0.00 0.00 57 1014.1
20221210012005 80 94 6.0 14.0 0.00 0.00 0.00 56 1014.1
20221210011503 80 94 6.0 13.0 0.00 0.00 0.00 57 1014.3
20221210011006 80 91 6.0 11.0 0.00 0.00 0.00 57 1014.2
20221210010504 80 91 6.0 13.0 0.00 0.00 0.00 56 1014.2
20221210010006 79 88 5.0 13.0 0.00 0.00 0.00 56 1014.2
20221210005503 79 70 5.0 13.0 0.00 0.00 0.00 55 1014.2
20221210005006 79 74 5.0 11.0 0.00 0.00 0.00 57 1014.2
20221210004503 79 91 5.0 11.0 0.00 0.00 0.00 58 1014.2
20221210004006 79 89 5.0 11.0 0.00 0.00 0.00 55 1014.1
20221210003504 79 82 6.0 11.0 0.00 0.00 0.00 58 1014.0
20221210003006 80 86 7.0 16.0 0.00 0.00 0.00 58 1014.0
20221210002504 80 85 7.0 16.0 0.00 0.00 0.00 56 1013.8
20221210002005 79 90 7.0 15.0 0.00 0.00 0.00 56 1014.0
20221210001503 79 101 7.0 13.0 0.00 0.00 0.00 55 1013.9
20221210001006 79 103 7.0 13.0 0.00 0.00 0.00 54 1014.0
20221210000503 78 101 6.0 11.0 0.00 0.00 0.00 54 1014.0
20221210000005 79 107 6.0 12.0 0.00 0.00 0.00 56 1014.2
20221209235503 78 101 6.0 12.0 0.00 0.00 0.00 56 1014.2
20221209235006 78 96 6.0 17.0 0.00 0.00 0.00 54 1014.3
20221209234505 78 96 6.0 17.0 0.00 0.00 0.00 53 1014.3
20221209232503 78 85 5.0 12.0 0.00 0.00 0.00 55 1014.3
20221209232005 78 82 5.0 9.0 0.00 0.00 0.00 54 1014.4
20221209231006 78 90 4.0 10.0 0.00 0.00 0.00 50 1014.5
20221209230503 77 97 4.0 9.0 0.00 0.00 0.00 50 1014.5
20221209230005 77 103 4.0 9.0 0.00 0.00 0.00 42 1014.5
20221209225005 77 112 4.0 10.0 0.00 0.00 0.00 36 1014.4
20221209224005 77 115 4.0 7.0 0.00 0.00 0.00 28 1014.3
20221209223504 77 118 4.0 8.0 0.00 0.00 0.00 27 1014.3
20221209223006 76 121 4.0 8.0 0.00 0.00 0.00 28 1014.4
20221209222006 77 123 4.0 9.0 0.00 0.00 0.00 33 1014.3
20221209221503 77 124 3.0 9.0 0.00 0.00 0.00 28 1014.3
20221209221005 77 111 2.0 7.0 0.00 0.00 0.00 34 1014.2
20221209220504 76 110 2.0 6.0 0.00 0.00 0.00 26 1014.1
20221209220005 76 112 3.0 7.0 0.00 0.00 0.00 25 1014.1
20221209215504 76 115 3.0 7.0 0.00 0.00 0.00 23 1014.1
20221209214503 76 129 3.0 7.0 0.00 0.00 0.00 25 1014.0
20221209214006 76 137 2.0 7.0 0.00 0.00 0.00 22 1013.9
20221209213503 76 130 2.0 5.0 0.00 0.00 0.00 20 1013.9
20221209213006 76 125 2.0 5.0 0.00 0.00 0.00 21 1014.0
20221209212006 76 123 2.0 4.0 0.00 0.00 0.00 21 1014.0
20221209211503 76 143 1.0 4.0 0.00 0.00 0.00 21 1014.1
20221209211006 76 163 1.0 4.0 0.00 0.00 0.00 21 1014.1
20221209210508 76 160 1.0 4.0 0.00 0.00 0.00 22 1014.0
20221209210005 76 152 1.0 4.0 0.00 0.00 0.00 22 1014.1
20221209205504 76 151 1.0 4.0 0.00 0.00 0.00 22 1014.0
20221209205005 76 151 1.0 4.0 0.00 0.00 0.00 22 1013.9
20221209204005 76 142 2.0 4.0 0.00 0.00 0.00 27 1013.9
20221209203503 76 139 2.0 4.0 0.00 0.00 0.00 31 1013.9
20221209203005 76 131 1.0 4.0 0.00 0.00 0.00 35 1013.8
20221209202005 76 131 1.0 3.0 0.00 0.00 0.00 34 1013.6
20221209201504 76 0 0.0 3.0 0.00 0.00 0.00 32 1013.6
20221209201005 75 0 0.0 0.0 0.00 0.00 0.00 27 1013.6
20221209200503 75 0 0.0 1.0 0.00 0.00 0.00 27 1013.5
20221209200005 75 0 0.0 1.0 0.00 0.00 0.00 25 1013.4
20221209195505 75 0 0.0 1.0 0.00 0.00 0.00 25 1013.4
20221209194503 75 0 0.0 3.0 0.00 0.00 0.00 23 1013.2
20221209194005 75 0 0.0 3.0 0.00 0.00 0.00 24 1013.0
20221209193504 75 0 0.0 3.0 0.00 0.00 0.00 23 1012.9
20221209193006 75 0 0.0 3.0 0.00 0.00 0.00 25 1012.9
20221209192506 75 0 0.0 2.0 0.00 0.00 0.00 26 1012.8
20221209191005 75 133 1.0 4.0 0.00 0.00 0.00 27 1012.5
20221209190504 75 132 1.0 4.0 0.00 0.00 0.00 27 1012.5
20221209190006 75 122 1.0 3.0 0.00 0.00 0.00 26 1012.4
20221209185006 75 120 2.0 7.0 0.00 0.00 0.00 27 1012.3
20221209184503 75 117 1.0 7.0 0.00 0.00 0.00 26 1012.3
20221209184006 75 112 1.0 5.0 0.00 0.00 0.00 24 1012.3
20221209183503 75 121 1.0 2.0 0.00 0.00 0.00 23 1012.3
20221209183005 75 129 2.0 5.0 0.00 0.00 0.00 23 1012.3
20221209182504 75 115 2.0 7.0 0.00 0.00 0.00 25 1012.3
20221209182006 75 112 2.0 7.0 0.00 0.00 0.00 25 1012.2
20221209181006 75 123 1.0 5.0 0.00 0.00 0.00 22 1012.1
20221209180503 75 126 1.0 4.0 0.00 0.00 0.00 23 1012.1
20221209180006 75 127 1.0 3.0 0.00 0.00 0.00 25 1012.0
20221209175503 75 123 2.0 6.0 0.00 0.00 0.00 27 1011.9
20221209174503 75 120 2.0 5.0 0.00 0.00 0.00 29 1011.7
20221209174006 75 116 2.0 7.0 0.00 0.00 0.00 28 1011.8
20221209173006 74 113 1.0 3.0 0.00 0.00 0.00 20 1011.8
20221209172504 74 99 1.0 5.0 0.00 0.00 0.00 20 1011.9
20221209171504 74 111 2.0 4.0 0.00 0.00 0.00 20 1011.7
20221209171005 74 115 2.0 4.0 0.00 0.00 0.00 22 1011.7
20221209165504 75 116 3.0 7.0 0.00 0.00 0.00 24 1011.5
20221209165005 75 109 3.0 7.0 0.00 0.00 0.00 29 1011.3
20221209164005 75 100 2.0 6.0 0.00 0.00 0.00 36 1011.3
20221209163503 75 99 2.0 7.0 0.00 0.00 0.00 36 1011.3
20221209163005 75 98 3.0 7.0 0.00 0.00 0.00 41 1011.1
20221209162504 75 102 2.0 7.0 0.00 0.00 0.00 42 1011.0
20221209161006 75 93 2.0 7.0 0.00 0.00 0.00 41 1010.9
20221209160503 75 94 2.0 7.0 0.00 0.00 0.00 42 1010.9
20221209160006 75 97 2.0 5.0 0.00 0.00 0.00 42 1011.0
20221209155505 75 98 2.0 5.0 0.00 0.00 0.00 41 1011.1
20221209155005 75 92 3.0 7.0 0.00 0.00 0.00 40 1011.1
20221209154005 75 91 3.0 6.0 0.00 0.00 0.00 38 1011.2
20221209153505 75 97 3.0 7.0 0.00 0.00 0.00 38 1011.2
20221209153005 75 95 3.0 7.0 0.00 0.00 0.00 37 1011.3
20221209152504 76 93 2.0 6.0 0.00 0.00 0.00 37 1011.3
20221209152005 76 93 2.0 6.0 0.00 0.00 0.00 38 1011.4
20221209150504 76 99 3.0 7.0 0.00 0.00 0.00 38 1011.5
20221209145504 76 101 2.0 7.0 0.00 0.00 0.00 38 1011.5
20221209145006 76 94 2.0 7.0 0.00 0.00 0.00 38 1011.8
20221209144503 76 93 3.0 6.0 0.00 0.00 0.00 39 1011.9
20221209143503 75 96 2.0 6.0 0.00 0.00 0.00 39 1012.0
20221209143005 76 101 3.0 7.0 0.00 0.00 0.00 38 1012.1
20221209142504 76 101 3.0 7.0 0.00 0.00 0.00 36 1012.2
20221209142005 76 96 3.0 9.0 0.00 0.00 0.00 35 1012.2
20221209141503 76 99 1.0 9.0 0.00 0.00 0.00 37 1012.3
20221209140504 76 136 3.0 6.0 0.00 0.00 0.00 39 1012.4
20221209135504 76 123 2.0 7.0 0.00 0.00 0.00 45 1012.5
20221209134504 76 124 2.0 5.0 0.00 0.00 0.00 47 1012.4
20221209134006 76 114 3.0 6.0 0.00 0.00 0.00 49 1012.3
20221209133504 76 109 3.0 10.0 0.00 0.00 0.00 49 1012.3
20221209133007 76 98 3.0 10.0 0.00 0.00 0.00 49 1012.1
20221209132503 76 95 2.0 10.0 0.00 0.00 0.00 48 1012.0
20221209132006 76 97 3.0 5.0 0.00 0.00 0.00 47 1012.1
20221209131504 76 101 4.0 7.0 0.00 0.00 0.00 48 1012.2
20221209131005 76 96 3.0 10.0 0.00 0.00 0.00 49 1012.0
20221209130504 76 94 3.0 10.0 0.00 0.00 0.00 49 1011.9
20221209130006 76 101 4.0 9.0 0.00 0.00 0.00 48 1012.1
20221209125503 76 103 3.0 9.0 0.00 0.00 0.00 48 1011.9
20221209125007 76 110 3.0 8.0 0.00 0.00 0.00 48 1012.0
20221209124504 76 107 3.0 9.0 0.00 0.00 0.00 49 1012.1
20221209124005 76 97 3.0 9.0 0.00 0.00 0.00 50 1012.1
20221209123503 76 102 4.0 8.0 0.00 0.00 0.00 48 1012.0
20221209123006 76 108 4.0 11.0 0.00 0.00 0.00 46 1012.0
20221209122505 76 111 4.0 11.0 0.00 0.00 0.00 45 1012.0
20221209122006 76 112 4.0 9.0 0.00 0.00 0.00 47 1012.1
20221209121503 76 112 4.0 11.0 0.00 0.00 0.00 47 1012.2
20221209121006 76 111 4.0 11.0 0.00 0.00 0.00 47 1012.2
20221209120505 76 111 4.0 9.0 0.00 0.00 0.00 47 1012.3
20221209115504 76 108 3.0 8.0 0.00 0.00 0.00 47 1012.3
20221209114504 76 113 3.0 7.0 0.00 0.00 0.00 48 1012.2
20221209113502 76 104 3.0 10.0 0.00 0.00 0.00 49 1012.2
20221209113005 76 104 3.0 10.0 0.00 0.00 0.00 50 1012.1
20221209112503 76 105 3.0 8.0 0.00 0.00 0.00 50 1012.1
20221209111502 76 90 4.0 8.0 0.00 0.00 0.00 52 1011.9
20221209111005 76 90 4.0 10.0 0.00 0.00 0.00 52 1011.8
20221209110503 76 103 5.0 13.0 0.00 0.00 0.00 52 1011.7
20221209110005 76 108 6.0 13.0 0.00 0.00 0.00 53 1011.8
20221209105503 76 103 6.0 12.0 0.00 0.00 0.00 54 1011.8
20221209105005 76 98 5.0 12.0 0.00 0.00 0.00 54 1011.7
20221209104005 76 97 4.0 8.0 0.00 0.00 0.00 49 1011.6
20221209103502 76 100 4.0 8.0 0.00 0.00 0.00 48 1011.4
20221209103004 76 107 4.0 10.0 0.00 0.00 0.00 49 1011.3
20221209102502 76 105 3.0 10.0 0.00 0.00 0.00 48 1011.3
20221209101503 76 93 4.0 9.0 0.00 0.00 0.00 49 1011.3
20221209101004 76 90 5.0 11.0 0.00 0.00 0.00 49 1011.2
20221209100502 76 91 5.0 11.0 0.00 0.00 0.00 50 1011.1
20221209100005 76 100 4.0 11.0 0.00 0.00 0.00 50 1011.1